Location: McFarlands Corners
(41.4117°N, 81.3382°W)
Time: 21:25:12
(UTC+00:00)

Tiros 1 despin weight - All Passes

Search period start: 17 February 2026 00:00
Search period end: 27 February 2026 00:00
Orbit: 557 x 594 km, 48.2° (Epoch: 16 February)

Date Brightness Start Highest point End Pass type
(mag) Time Alt. Az. Time Alt. Az. Time Alt. Az.
17 Feb - 01:11:58 10° WNW 01:16:03 46° NNE 01:20:08 10° E visible
17 Feb - 02:52:35 10° WNW 02:56:40 48° SW 03:00:45 10° SE visible
17 Feb - 20:11:34 10° SW 20:15:39 53° SE 20:19:46 10° ENE daylight
17 Feb - 21:52:17 10° W 21:56:19 44° NNW 22:00:22 10° ENE daylight
17 Feb - 23:33:44 10° WNW 23:37:32 32° N 23:41:21 10° ENE visible
18 Feb - 01:14:29 10° WNW 01:18:38 60° NNE 01:22:49 10° ESE visible
18 Feb - 02:55:18 10° WNW 02:59:04 32° SW 03:02:49 10° SSE visible
18 Feb - 18:35:36 10° S 18:38:04 15° SE 18:40:31 10° E daylight
18 Feb - 20:13:54 10° SW 20:18:07 79° SSE 20:22:19 10° ENE daylight
18 Feb - 21:55:02 10° W 21:58:58 37° NNW 22:02:53 10° ENE daylight
18 Feb - 23:36:22 10° WNW 23:40:13 34° N 23:44:05 10° ENE visible
19 Feb - 01:16:58 10° WNW 01:21:11 82° NNE 01:25:25 10° ESE visible
19 Feb - 02:58:13 10° W 03:01:23 21° SW 03:04:34 10° S visible
19 Feb - 18:36:57 10° S 18:40:21 24° SE 18:43:44 10° E daylight
19 Feb - 20:16:24 10° WSW 20:20:37 74° NNW 20:24:49 10° ENE daylight
19 Feb - 21:57:47 10° WNW 22:01:37 33° N 22:05:27 10° ENE daylight
19 Feb - 23:38:55 10° WNW 23:42:52 39° NNE 23:46:50 10° E visible
20 Feb - 01:19:29 10° WNW 01:23:40 70° SSW 01:27:52 10° SE visible
20 Feb - 03:01:40 10° WSW 03:03:39 13° SW 03:05:39 10° SSW visible
20 Feb - 18:38:48 10° SSW 18:42:41 36° SE 18:46:33 10° ENE daylight
20 Feb - 20:19:01 10° W 20:23:09 55° NNW 20:27:18 10° ENE daylight
20 Feb - 22:00:30 10° WNW 22:04:17 32° N 22:08:05 10° ENE daylight
20 Feb - 23:41:24 10° WNW 23:45:29 47° NNE 23:49:34 10° E visible
21 Feb - 01:22:03 10° WNW 01:26:05 46° SW 01:30:08 10° SE visible
21 Feb - 18:40:55 10° SW 18:45:04 55° SE 18:49:11 10° ENE daylight
21 Feb - 20:21:41 10° W 20:25:44 43° NNW 20:29:46 10° ENE daylight
21 Feb - 22:03:09 10° WNW 22:06:57 32° N 22:10:46 10° ENE daylight
21 Feb - 23:43:53 10° WNW 23:48:03 61° NNE 23:52:13 10° ESE visible
22 Feb - 01:24:44 10° WNW 01:28:26 30° SW 01:32:08 10° SSE visible
22 Feb - 17:04:48 10° S 17:07:24 16° SE 17:10:00 10° E daylight
22 Feb - 18:43:15 10° WSW 18:47:29 82° SSE 18:51:42 10° ENE daylight
22 Feb - 20:24:25 10° W 20:28:21 37° NNW 20:32:16 10° ENE daylight
22 Feb - 22:05:44 10° WNW 22:09:36 34° N 22:13:28 10° ENE daylight
22 Feb - 23:46:20 10° WNW 23:50:33 84° NNE 23:54:45 10° ESE visible
23 Feb - 01:27:39 10° W 01:30:44 20° SW 01:33:48 10° S visible
23 Feb - 17:06:11 10° SSW 17:09:40 25° SE 17:13:07 10° E daylight
23 Feb - 18:45:43 10° WSW 18:49:58 72° NNW 18:54:10 10° ENE daylight
23 Feb - 20:27:08 10° WNW 20:30:59 33° N 20:34:49 10° ENE daylight
23 Feb - 22:08:15 10° WNW 22:12:13 39° NNE 22:16:11 10° E daylight
23 Feb - 23:48:49 10° WNW 23:52:59 68° SSW 23:57:10 10° SE visible
24 Feb - 01:31:10 10° WSW 01:32:57 12° SW 01:34:45 10° SSW visible
24 Feb - 17:08:01 10° SSW 17:11:58 37° SE 17:15:53 10° ENE daylight
24 Feb - 18:48:18 10° W 18:52:28 54° NNW 18:56:37 10° ENE daylight
24 Feb - 20:29:48 10° WNW 20:33:37 32° N 20:37:24 10° ENE daylight
24 Feb - 22:10:43 10° WNW 22:14:48 48° NNE 22:18:52 10° E daylight
24 Feb - 23:51:22 10° WNW 23:55:22 45° SW 23:59:23 10° SE visible
25 Feb - 15:33:56 10° SE 15:34:26 10° SE 15:34:56 10° SE daylight
25 Feb - 17:10:08 10° SW 17:14:19 57° SE 17:18:29 10° ENE daylight
25 Feb - 18:50:58 10° W 18:55:01 43° NNW 18:59:03 10° ENE daylight
25 Feb - 20:32:25 10° WNW 20:36:15 32° N 20:40:03 10° ENE daylight
25 Feb - 22:13:08 10° WNW 22:17:19 63° NNE 22:21:29 10° ESE daylight
25 Feb - 23:54:02 10° W 23:57:41 29° SW 00:01:21 10° SSE visible
26 Feb - 15:33:52 10° S 15:36:37 17° SE 15:39:22 10° E daylight
26 Feb - 17:12:27 10° WSW 17:16:43 84° SSE 17:20:58 10° ENE daylight
26 Feb - 18:53:39 10° W 18:57:36 36° N 19:01:32 10° ENE daylight
26 Feb - 20:34:57 10° WNW 20:38:51 35° N 20:42:44 10° ENE daylight
26 Feb - 22:15:34 10° WNW 22:19:47 86° NNE 22:24:00 10° ESE daylight
